contact:dominique.lefevre@mio.osupytheas.fr, maurice.libes@osupytheas.fr, didier.mallarino@osupytheas.fr
Project:EMSO http://www.emso-fr.org/EMSO-France
Depth: 2436.0 m
Title:EMSO Ligure Ouest : Data MII capteur CSTAR
DateTime,Latitude,Longitude,Instrument_Serial,Reference_Counts,Signal_Counts,Corrected_Signal_raw_counts,Calculated_Beam_c_inverse_meters,Internal_thermistor_counts
DateTime,Latitude,Longitude,Instrument_Serial,Reference_Counts,Signal_Counts,Corrected_Signal_raw_counts,Calculated_Beam_c_inverse_meters,Internal_thermistor_counts
2020-07-11T00:00:27,42.805,6.029,CST-1368DR,6091,8532,15127,0.127,551
2020-07-11T00:03:29,42.805,6.029,CST-1368DR,6091,8533,15128,0.127,551
2020-07-11T00:06:31,42.805,6.029,CST-1368DR,6091,8532,15126,0.128,551
2020-07-11T00:09:32,42.805,6.029,CST-1368DR,6091,8533,15127,0.127,551
2020-07-11T00:12:34,42.805,6.029,CST-1368DR,6091,8532,15126,0.128,551
2020-07-11T00:15:36,42.805,6.029,CST-1368DR,6091,8533,15127,0.127,551
2020-07-11T00:18:38,42.805,6.029,CST-1368DR,6091,8532,15127,0.127,551
2020-07-11T00:21:39,42.805,6.029,CST-1368DR,6091,8532,15127,0.127,551
2020-07-11T00:24:41,42.805,6.029,CST-1368DR,6091,8531,15124,0.128,551
2020-07-11T00:27:43,42.805,6.029,CST-1368DR,6091,8533,15127,0.127,551
2020-07-11T00:30:44,42.805,6.029,CST-1368DR,6091,8533,15127,0.127,551
2020-07-11T00:33:46,42.805,6.029,CST-1368DR,6091,8533,15128,0.127,551
2020-07-11T00:36:48,42.805,6.029,CST-1368DR,6091,8533,15127,0.127,551
2020-07-11T00:39:49,42.805,6.029,CST-1368DR,6091,8533,15127,0.127,551
2020-07-11T00:42:51,42.805,6.029,CST-1368DR,6091,8532,15125,0.128,551
2020-07-11T00:45:53,42.805,6.029,CST-1368DR,6091,8532,15125,0.128,551
2020-07-11T00:48:55,42.805,6.029,CST-1368DR,6091,8532,15127,0.127,551
2020-07-11T00:51:56,42.805,6.029,CST-1368DR,6091,8533,15127,0.127,551
2020-07-11T00:54:58,42.805,6.029,CST-1368DR,6091,8530,15123,0.128,551
2020-07-11T00:58:00,42.805,6.029,CST-1368DR,6091,8532,15125,0.128,551
2020-07-11T01:01:01,42.805,6.029,CST-1368DR,6091,8533,15127,0.127,550
2020-07-11T01:04:03,42.805,6.029,CST-1368DR,6091,8530,15123,0.128,551
2020-07-11T01:07:05,42.805,6.029,CST-1368DR,6091,8532,15127,0.127,551
2020-07-11T01:10:07,42.805,6.029,CST-1368DR,6091,8532,15126,0.128,551
2020-07-11T01:13:08,42.805,6.029,CST-1368DR,6091,8532,15127,0.127,551
2020-07-11T01:16:10,42.805,6.029,CST-1368DR,6091,8532,15125,0.128,551
2020-07-11T01:19:12,42.805,6.029,CST-1368DR,6091,8532,15125,0.128,551
2020-07-11T01:22:13,42.805,6.029,CST-1368DR,6091,8532,15126,0.128,551
2020-07-11T01:25:15,42.805,6.029,CST-1368DR,6091,8532,15127,0.127,551
2020-07-11T01:28:17,42.805,6.029,CST-1368DR,6091,8531,15124,0.128,551
2020-07-11T01:31:18,42.805,6.029,CST-1368DR,6091,8533,15127,0.127,551
2020-07-11T01:34:20,42.805,6.029,CST-1368DR,6091,8531,15124,0.128,551
2020-07-11T01:37:22,42.805,6.029,CST-1368DR,6091,8530,15123,0.128,551
2020-07-11T01:40:23,42.805,6.029,CST-1368DR,6091,8531,15124,0.128,551
2020-07-11T01:43:25,42.805,6.029,CST-1368DR,6091,8532,15126,0.128,551
2020-07-11T01:46:27,42.805,6.029,CST-1368DR,6091,8532,15126,0.128,551
2020-07-11T01:49:29,42.805,6.029,CST-1368DR,6091,8532,15126,0.128,551
2020-07-11T01:52:31,42.805,6.029,CST-1368DR,6091,8532,15127,0.127,551
2020-07-11T01:55:32,42.805,6.029,CST-1368DR,6091,8531,15124,0.128,551
2020-07-11T01:58:34,42.805,6.029,CST-1368DR,6091,8532,15126,0.128,551
2020-07-11T02:01:36,42.805,6.029,CST-1368DR,6091,8530,15123,0.128,551
2020-07-11T02:04:38,42.805,6.029,CST-1368DR,6091,8532,15126,0.128,551
2020-07-11T02:07:39,42.805,6.029,CST-1368DR,6091,8532,15125,0.128,551
2020-07-11T02:10:41,42.805,6.029,CST-1368DR,6091,8531,15123,0.128,551
2020-07-11T02:13:43,42.805,6.029,CST-1368DR,6091,8532,15127,0.127,551
2020-07-11T02:16:45,42.805,6.029,CST-1368DR,6091,8532,15126,0.128,551
2020-07-11T02:19:46,42.805,6.029,CST-1368DR,6091,8532,15126,0.128,551
2020-07-11T02:22:48,42.805,6.029,CST-1368DR,6091,8532,15127,0.127,551
2020-07-11T02:25:50,42.805,6.029,CST-1368DR,6091,8531,15124,0.128,551
2020-07-11T02:28:51,42.805,6.029,CST-1368DR,6091,8531,15124,0.128,551
2020-07-11T02:31:53,42.805,6.029,CST-1368DR,6091,8531,15123,0.128,551
2020-07-11T02:34:55,42.805,6.029,CST-1368DR,6091,8532,15126,0.128,551
2020-07-11T02:37:56,42.805,6.029,CST-1368DR,6091,8532,15127,0.127,551
2020-07-11T02:40:58,42.805,6.029,CST-1368DR,6091,8532,15127,0.127,551
2020-07-11T02:44:00,42.805,6.029,CST-1368DR,6091,8532,15125,0.128,551
2020-07-11T02:47:01,42.805,6.029,CST-1368DR,6091,8531,15124,0.128,551
2020-07-11T02:50:03,42.805,6.029,CST-1368DR,6091,8532,15126,0.128,551
2020-07-11T02:53:05,42.805,6.029,CST-1368DR,6091,8532,15127,0.127,551
2020-07-11T02:56:06,42.805,6.029,CST-1368DR,6091,8532,15127,0.127,551
2020-07-11T02:59:08,42.805,6.029,CST-1368DR,6091,8532,15126,0.128,551
2020-07-11T03:02:10,42.805,6.029,CST-1368DR,6091,8532,15125,0.128,551
2020-07-11T03:05:11,42.805,6.029,CST-1368DR,6091,8532,15127,0.127,551
2020-07-11T03:08:13,42.805,6.029,CST-1368DR,6091,8531,15124,0.128,551
2020-07-11T03:11:15,42.805,6.029,CST-1368DR,6091,8532,15127,0.127,551
2020-07-11T03:14:16,42.805,6.029,CST-1368DR,6091,8532,15125,0.128,551
2020-07-11T03:17:18,42.805,6.029,CST-1368DR,6091,8532,15126,0.128,550
2020-07-11T03:20:20,42.805,6.029,CST-1368DR,6091,8532,15125,0.128,551
2020-07-11T03:23:22,42.805,6.029,CST-1368DR,6090,8529,15122,0.129,551
2020-07-11T03:26:24,42.805,6.029,CST-1368DR,6091,8530,15123,0.128,551
2020-07-11T03:29:25,42.805,6.029,CST-1368DR,6091,8532,15126,0.128,551
2020-07-11T03:32:27,42.805,6.029,CST-1368DR,6091,8532,15125,0.128,551
2020-07-11T03:35:29,42.805,6.029,CST-1368DR,6090,8531,15127,0.127,551
2020-07-11T03:38:30,42.805,6.029,CST-1368DR,6090,8532,15128,0.127,551
2020-07-11T03:41:32,42.805,6.029,CST-1368DR,6090,8532,15128,0.127,551
2020-07-11T03:44:34,42.805,6.029,CST-1368DR,6090,8530,15125,0.128,551
2020-07-11T03:47:36,42.805,6.029,CST-1368DR,6090,8530,15124,0.128,551
2020-07-11T03:50:37,42.805,6.029,CST-1368DR,6090,8532,15128,0.127,551
2020-07-11T03:53:39,42.805,6.029,CST-1368DR,6090,8532,15128,0.127,551
2020-07-11T03:56:41,42.805,6.029,CST-1368DR,6090,8532,15128,0.127,551
2020-07-11T03:59:42,42.805,6.029,CST-1368DR,6090,8532,15128,0.127,551
2020-07-11T04:02:44,42.805,6.029,CST-1368DR,6090,8532,15128,0.127,551
2020-07-11T04:05:46,42.805,6.029,CST-1368DR,6090,8532,15128,0.127,551
2020-07-11T04:08:48,42.805,6.029,CST-1368DR,6090,8531,15126,0.128,551
2020-07-11T04:11:49,42.805,6.029,CST-1368DR,6090,8532,15128,0.127,551
2020-07-11T04:14:51,42.805,6.029,CST-1368DR,6090,8532,15128,0.127,551
2020-07-11T04:17:53,42.805,6.029,CST-1368DR,6090,8532,15128,0.127,551
2020-07-11T04:20:54,42.805,6.029,CST-1368DR,6090,8532,15128,0.127,551
2020-07-11T04:23:56,42.805,6.029,CST-1368DR,6090,8532,15128,0.127,551
2020-07-11T04:26:58,42.805,6.029,CST-1368DR,6090,8532,15129,0.127,551
2020-07-11T04:29:59,42.805,6.029,CST-1368DR,6090,8532,15128,0.127,551
2020-07-11T04:33:01,42.805,6.029,CST-1368DR,6090,8532,15128,0.127,551
2020-07-11T04:36:03,42.805,6.029,CST-1368DR,6090,8532,15128,0.127,551
2020-07-11T04:39:04,42.805,6.029,CST-1368DR,6090,8532,15128,0.127,551
2020-07-11T04:42:06,42.805,6.029,CST-1368DR,6090,8532,15128,0.127,551
2020-07-11T04:45:08,42.805,6.029,CST-1368DR,6090,8533,15129,0.127,551
2020-07-11T04:48:09,42.805,6.029,CST-1368DR,6090,8532,15129,0.127,551
2020-07-11T04:51:11,42.805,6.029,CST-1368DR,6090,8532,15129,0.127,551
2020-07-11T04:54:13,42.805,6.029,CST-1368DR,6090,8532,15128,0.127,551
2020-07-11T04:57:14,42.805,6.029,CST-1368DR,6090,8532,15128,0.127,551
2020-07-11T05:00:16,42.805,6.029,CST-1368DR,6090,8531,15127,0.127,551
2020-07-11T05:03:18,42.805,6.029,CST-1368DR,6090,8530,15125,0.128,551
2020-07-11T05:06:20,42.805,6.029,CST-1368DR,6090,8533,15129,0.127,551
2020-07-11T05:09:21,42.805,6.029,CST-1368DR,6090,8532,15128,0.127,551
2020-07-11T05:12:23,42.805,6.029,CST-1368DR,6090,8532,15128,0.127,551
2020-07-11T05:15:25,42.805,6.029,CST-1368DR,6090,8532,15129,0.127,551
2020-07-11T05:18:27,42.805,6.029,CST-1368DR,6090,8531,15126,0.128,551
2020-07-11T05:21:28,42.805,6.029,CST-1368DR,6090,8532,15128,0.127,551
2020-07-11T05:24:30,42.805,6.029,CST-1368DR,6090,8532,15128,0.127,551
2020-07-11T05:27:32,42.805,6.029,CST-1368DR,6090,8532,15129,0.127,550
2020-07-11T05:30:33,42.805,6.029,CST-1368DR,6090,8532,15129,0.127,551
2020-07-11T05:33:35,42.805,6.029,CST-1368DR,6090,8532,15128,0.127,551
2020-07-11T05:36:37,42.805,6.029,CST-1368DR,6090,8532,15128,0.127,551
2020-07-11T05:39:38,42.805,6.029,CST-1368DR,6090,8532,15128,0.127,550
2020-07-11T05:42:40,42.805,6.029,CST-1368DR,6090,8529,15123,0.128,551
2020-07-11T05:45:42,42.805,6.029,CST-1368DR,6090,8533,15129,0.127,551
2020-07-11T05:48:44,42.805,6.029,CST-1368DR,6090,8532,15128,0.127,551
2020-07-11T05:51:45,42.805,6.029,CST-1368DR,6090,8532,15128,0.127,551
2020-07-11T05:54:47,42.805,6.029,CST-1368DR,6090,8532,15128,0.127,551
2020-07-11T05:57:49,42.805,6.029,CST-1368DR,6090,8532,15129,0.127,551
2020-07-11T06:00:51,42.805,6.029,CST-1368DR,6090,8526,15117,0.130,551
2020-07-11T06:03:52,42.805,6.029,CST-1368DR,6090,8531,15126,0.128,551
2020-07-11T06:06:54,42.805,6.029,CST-1368DR,6090,8532,15128,0.127,551
2020-07-11T06:09:56,42.805,6.029,CST-1368DR,6090,8531,15127,0.127,551
2020-07-11T06:12:57,42.805,6.029,CST-1368DR,6090,8532,15128,0.127,551
2020-07-11T06:15:59,42.805,6.029,CST-1368DR,6090,8530,15124,0.128,551
2020-07-11T06:19:01,42.805,6.029,CST-1368DR,6090,8531,15127,0.127,551
2020-07-11T06:22:03,42.805,6.029,CST-1368DR,6090,8532,15128,0.127,551
2020-07-11T06:25:04,42.805,6.029,CST-1368DR,6090,8532,15129,0.127,551
2020-07-11T06:28:06,42.805,6.029,CST-1368DR,6090,8532,15128,0.127,551
2020-07-11T06:31:08,42.805,6.029,CST-1368DR,6090,8531,15126,0.128,550
2020-07-11T06:34:09,42.805,6.029,CST-1368DR,6090,8531,15126,0.128,551
2020-07-11T06:37:11,42.805,6.029,CST-1368DR,6090,8530,15124,0.128,551
2020-07-11T06:40:13,42.805,6.029,CST-1368DR,6090,8531,15126,0.128,551
2020-07-11T06:43:14,42.805,6.029,CST-1368DR,6090,8531,15127,0.127,551
2020-07-11T06:46:16,42.805,6.029,CST-1368DR,6090,8532,15128,0.127,551
2020-07-11T06:49:18,42.805,6.029,CST-1368DR,6090,8531,15127,0.127,551
2020-07-11T06:52:20,42.805,6.029,CST-1368DR,6090,8531,15126,0.128,551
2020-07-11T06:55:21,42.805,6.029,CST-1368DR,6090,8531,15127,0.127,551
2020-07-11T06:58:23,42.805,6.029,CST-1368DR,6090,8532,15128,0.127,551
2020-07-11T07:01:25,42.805,6.029,CST-1368DR,6090,8530,15124,0.128,551
2020-07-11T07:04:26,42.805,6.029,CST-1368DR,6090,8531,15126,0.128,551
2020-07-11T07:07:28,42.805,6.029,CST-1368DR,6090,8530,15125,0.128,551
2020-07-11T07:10:30,42.805,6.029,CST-1368DR,6090,8531,15126,0.128,551
2020-07-11T07:13:31,42.805,6.029,CST-1368DR,6090,8531,15126,0.128,551
2020-07-11T07:16:33,42.805,6.029,CST-1368DR,6090,8531,15127,0.127,551
2020-07-11T07:19:35,42.805,6.029,CST-1368DR,6090,8532,15128,0.127,551
2020-07-11T07:22:36,42.805,6.029,CST-1368DR,6090,8531,15126,0.128,551
2020-07-11T07:25:38,42.805,6.029,CST-1368DR,6090,8530,15125,0.128,551
2020-07-11T07:28:40,42.805,6.029,CST-1368DR,6090,8531,15126,0.128,551
2020-07-11T07:31:41,42.805,6.029,CST-1368DR,6090,8531,15126,0.128,551
2020-07-11T07:34:43,42.805,6.029,CST-1368DR,6090,8531,15126,0.128,551
2020-07-11T07:37:45,42.805,6.029,CST-1368DR,6090,8530,15125,0.128,550
2020-07-11T07:40:46,42.805,6.029,CST-1368DR,6090,8531,15127,0.127,551
2020-07-11T07:43:48,42.805,6.029,CST-1368DR,6090,8531,15127,0.127,551
2020-07-11T07:46:50,42.805,6.029,CST-1368DR,6090,8530,15125,0.128,551
2020-07-11T07:49:52,42.805,6.029,CST-1368DR,6090,8531,15127,0.127,551
2020-07-11T07:52:53,42.805,6.029,CST-1368DR,6090,8530,15125,0.128,551
2020-07-11T07:55:55,42.805,6.029,CST-1368DR,6090,8531,15126,0.128,551
2020-07-11T07:58:57,42.805,6.029,CST-1368DR,6090,8531,15126,0.128,551
2020-07-11T08:01:59,42.805,6.029,CST-1368DR,6090,8529,15123,0.128,550
2020-07-11T08:05:01,42.805,6.029,CST-1368DR,6090,8531,15126,0.128,551
2020-07-11T08:08:02,42.805,6.029,CST-1368DR,6090,8530,15125,0.128,551
2020-07-11T08:11:04,42.805,6.029,CST-1368DR,6090,8530,15125,0.128,551
2020-07-11T08:14:06,42.805,6.029,CST-1368DR,6090,8531,15127,0.127,551
2020-07-11T08:17:07,42.805,6.029,CST-1368DR,6090,8531,15126,0.128,551
2020-07-11T08:20:09,42.805,6.029,CST-1368DR,6090,8530,15125,0.128,551
2020-07-11T08:23:11,42.805,6.029,CST-1368DR,6090,8530,15125,0.128,551
2020-07-11T08:26:13,42.805,6.029,CST-1368DR,6090,8530,15125,0.128,551
2020-07-11T08:29:14,42.805,6.029,CST-1368DR,6090,8530,15124,0.128,551
2020-07-11T08:32:16,42.805,6.029,CST-1368DR,6090,8531,15126,0.128,551
2020-07-11T08:35:18,42.805,6.029,CST-1368DR,6090,8530,15125,0.128,551
2020-07-11T08:38:19,42.805,6.029,CST-1368DR,6090,8531,15126,0.128,551
2020-07-11T08:41:21,42.805,6.029,CST-1368DR,6090,8530,15125,0.128,551
2020-07-11T08:44:23,42.805,6.029,CST-1368DR,6090,8531,15126,0.128,551
2020-07-11T08:47:24,42.805,6.029,CST-1368DR,6090,8530,15125,0.128,551
2020-07-11T08:50:26,42.805,6.029,CST-1368DR,6090,8531,15126,0.128,551
2020-07-11T08:53:28,42.805,6.029,CST-1368DR,6090,8531,15126,0.128,551
2020-07-11T08:56:29,42.805,6.029,CST-1368DR,6090,8531,15126,0.128,551
2020-07-11T08:59:31,42.805,6.029,CST-1368DR,6090,8530,15125,0.128,551
2020-07-11T09:02:33,42.805,6.029,CST-1368DR,6090,8530,15125,0.128,551
2020-07-11T09:05:34,42.805,6.029,CST-1368DR,6090,8530,15125,0.128,551
2020-07-11T09:08:36,42.805,6.029,CST-1368DR,6090,8529,15124,0.128,551
2020-07-11T09:11:38,42.805,6.029,CST-1368DR,6090,8530,15125,0.128,551
2020-07-11T09:14:40,42.805,6.029,CST-1368DR,6090,8529,15124,0.128,551
2020-07-11T09:17:41,42.805,6.029,CST-1368DR,6090,8529,15124,0.128,551
2020-07-11T09:20:43,42.805,6.029,CST-1368DR,6090,8529,15124,0.128,551
2020-07-11T09:23:45,42.805,6.029,CST-1368DR,6090,8530,15124,0.128,551
2020-07-11T09:26:46,42.805,6.029,CST-1368DR,6090,8530,15125,0.128,551
2020-07-11T09:29:48,42.805,6.029,CST-1368DR,6090,8529,15124,0.128,551
2020-07-11T09:32:50,42.805,6.029,CST-1368DR,6090,8530,15124,0.128,551
2020-07-11T09:35:52,42.805,6.029,CST-1368DR,6090,8529,15123,0.128,551
2020-07-11T09:38:53,42.805,6.029,CST-1368DR,6090,8529,15123,0.128,551
2020-07-11T09:41:55,42.805,6.029,CST-1368DR,6090,8530,15125,0.128,551
2020-07-11T09:44:57,42.805,6.029,CST-1368DR,6090,8529,15124,0.128,551
2020-07-11T09:47:58,42.805,6.029,CST-1368DR,6090,8530,15125,0.128,551
2020-07-11T09:51:00,42.805,6.029,CST-1368DR,6090,8530,15125,0.128,551
2020-07-11T09:54:02,42.805,6.029,CST-1368DR,6090,8530,15125,0.128,551
2020-07-11T09:57:03,42.805,6.029,CST-1368DR,6090,8529,15123,0.128,551
2020-07-11T10:00:05,42.805,6.029,CST-1368DR,6090,8530,15124,0.128,551
2020-07-11T10:03:07,42.805,6.029,CST-1368DR,6090,8528,15121,0.129,551
2020-07-11T10:06:09,42.805,6.029,CST-1368DR,6090,8528,15120,0.129,551
2020-07-11T10:09:10,42.805,6.029,CST-1368DR,6090,8530,15125,0.128,551
2020-07-11T10:12:12,42.805,6.029,CST-1368DR,6090,8530,15124,0.128,551
2020-07-11T10:15:14,42.805,6.029,CST-1368DR,6090,8530,15125,0.128,551
2020-07-11T10:18:15,42.805,6.029,CST-1368DR,6090,8530,15125,0.128,551
2020-07-11T10:21:17,42.805,6.029,CST-1368DR,6090,8530,15124,0.128,551
2020-07-11T10:24:19,42.805,6.029,CST-1368DR,6090,8530,15124,0.128,551
2020-07-11T10:27:20,42.805,6.029,CST-1368DR,6090,8530,15124,0.128,551
2020-07-11T10:30:22,42.805,6.029,CST-1368DR,6090,8529,15123,0.128,551
2020-07-11T10:33:24,42.805,6.029,CST-1368DR,6090,8529,15122,0.129,551
2020-07-11T10:36:26,42.805,6.029,CST-1368DR,6090,8530,15124,0.128,551
2020-07-11T10:39:27,42.805,6.029,CST-1368DR,6090,8530,15124,0.128,551
2020-07-11T10:42:29,42.805,6.029,CST-1368DR,6090,8531,15126,0.128,551
2020-07-11T10:45:31,42.805,6.029,CST-1368DR,6090,8529,15124,0.128,551
2020-07-11T10:48:32,42.805,6.029,CST-1368DR,6090,8530,15124,0.128,551
2020-07-11T10:51:34,42.805,6.029,CST-1368DR,6089,8530,15127,0.127,551
2020-07-11T10:54:36,42.805,6.029,CST-1368DR,6089,8529,15125,0.128,551
2020-07-11T10:57:37,42.805,6.029,CST-1368DR,6090,8529,15123,0.128,551
2020-07-11T11:00:39,42.805,6.029,CST-1368DR,6090,8529,15124,0.128,551
2020-07-11T11:03:41,42.805,6.029,CST-1368DR,6090,8529,15123,0.128,551
2020-07-11T11:06:42,42.805,6.029,CST-1368DR,6090,8529,15123,0.128,551
2020-07-11T11:09:44,42.805,6.029,CST-1368DR,6089,8529,15125,0.128,551
2020-07-11T11:12:46,42.805,6.029,CST-1368DR,6090,8529,15123,0.128,551
2020-07-11T11:15:47,42.805,6.029,CST-1368DR,6089,8529,15126,0.128,551
2020-07-11T11:18:49,42.805,6.029,CST-1368DR,6089,8530,15126,0.128,551
2020-07-11T11:21:51,42.805,6.029,CST-1368DR,6089,8529,15125,0.128,551
2020-07-11T11:24:53,42.805,6.029,CST-1368DR,6089,8529,15125,0.128,551
2020-07-11T11:27:54,42.805,6.029,CST-1368DR,6089,8530,15126,0.128,551
2020-07-11T11:30:56,42.805,6.029,CST-1368DR,6089,8529,15125,0.128,551
2020-07-11T11:33:58,42.805,6.029,CST-1368DR,6089,8529,15125,0.128,551
2020-07-11T11:37:00,42.805,6.029,CST-1368DR,6089,8529,15126,0.128,551
2020-07-11T11:40:01,42.805,6.029,CST-1368DR,6089,8529,15125,0.128,551
2020-07-11T11:43:03,42.805,6.029,CST-1368DR,6089,8529,15125,0.128,551
2020-07-11T11:46:05,42.805,6.029,CST-1368DR,6089,8529,15125,0.128,551
2020-07-11T11:49:06,42.805,6.029,CST-1368DR,6089,8529,15125,0.128,551
2020-07-11T11:52:08,42.805,6.029,CST-1368DR,6089,8529,15125,0.128,551
2020-07-11T11:55:10,42.805,6.029,CST-1368DR,6089,8526,15120,0.129,551
2020-07-11T11:58:11,42.805,6.029,CST-1368DR,6089,8529,15125,0.128,551
2020-07-11T12:01:13,42.805,6.029,CST-1368DR,6089,8529,15125,0.128,551
2020-07-11T12:04:15,42.805,6.029,CST-1368DR,6089,8528,15124,0.128,551
2020-07-11T12:07:17,42.805,6.029,CST-1368DR,6089,8529,15125,0.128,551
2020-07-11T12:10:18,42.805,6.029,CST-1368DR,6089,8529,15125,0.128,551
2020-07-11T12:13:20,42.805,6.029,CST-1368DR,6089,8529,15125,0.128,551
2020-07-11T12:16:22,42.805,6.029,CST-1368DR,6089,8529,15125,0.128,551
2020-07-11T12:19:23,42.805,6.029,CST-1368DR,6089,8529,15126,0.128,551
2020-07-11T12:22:25,42.805,6.029,CST-1368DR,6089,8529,15125,0.128,551
2020-07-11T12:25:27,42.805,6.029,CST-1368DR,6089,8528,15123,0.128,551
2020-07-11T12:28:28,42.805,6.029,CST-1368DR,6089,8529,15125,0.128,551
2020-07-11T12:31:30,42.805,6.029,CST-1368DR,6089,8529,15125,0.128,551
2020-07-11T12:34:32,42.805,6.029,CST-1368DR,6089,8529,15125,0.128,551
2020-07-11T12:37:33,42.805,6.029,CST-1368DR,6089,8528,15123,0.128,551
2020-07-11T12:40:35,42.805,6.029,CST-1368DR,6089,8527,15122,0.129,551
2020-07-11T12:43:37,42.805,6.029,CST-1368DR,6089,8528,15124,0.128,551
2020-07-11T12:46:39,42.805,6.029,CST-1368DR,6089,8528,15123,0.128,551
2020-07-11T12:49:40,42.805,6.029,CST-1368DR,6089,8529,15125,0.128,551
2020-07-11T12:52:42,42.805,6.029,CST-1368DR,6089,8529,15125,0.128,551
2020-07-11T12:55:44,42.805,6.029,CST-1368DR,6089,8529,15125,0.128,551
2020-07-11T12:58:45,42.805,6.029,CST-1368DR,6089,8529,15125,0.128,551
2020-07-11T13:01:47,42.805,6.029,CST-1368DR,6089,8527,15122,0.129,551
2020-07-11T13:04:49,42.805,6.029,CST-1368DR,6089,8528,15124,0.128,551
2020-07-11T13:07:50,42.805,6.029,CST-1368DR,6089,8528,15123,0.128,551
2020-07-11T13:10:52,42.805,6.029,CST-1368DR,6089,8529,15125,0.128,551
2020-07-11T13:13:54,42.805,6.029,CST-1368DR,6089,8529,15125,0.128,551
2020-07-11T13:16:55,42.805,6.029,CST-1368DR,6089,8529,15125,0.128,551
2020-07-11T13:19:57,42.805,6.029,CST-1368DR,6089,8527,15122,0.129,551
2020-07-11T13:22:59,42.805,6.029,CST-1368DR,6089,8528,15123,0.128,551
2020-07-11T13:26:00,42.805,6.029,CST-1368DR,6089,8527,15122,0.129,551
2020-07-11T13:29:02,42.805,6.029,CST-1368DR,6089,8529,15125,0.128,551
2020-07-11T13:32:04,42.805,6.029,CST-1368DR,6089,8528,15124,0.128,551
2020-07-11T13:35:06,42.805,6.029,CST-1368DR,6089,8529,15125,0.128,551
2020-07-11T13:38:07,42.805,6.029,CST-1368DR,6089,8528,15123,0.128,551
2020-07-11T13:41:09,42.805,6.029,CST-1368DR,6089,8528,15124,0.128,551
2020-07-11T13:44:11,42.805,6.029,CST-1368DR,6089,8528,15124,0.128,551
2020-07-11T13:47:13,42.805,6.029,CST-1368DR,6089,8528,15123,0.128,551
2020-07-11T13:50:14,42.805,6.029,CST-1368DR,6089,8527,15121,0.129,551
2020-07-11T13:53:16,42.805,6.029,CST-1368DR,6089,8529,15125,0.128,551
2020-07-11T13:56:18,42.805,6.029,CST-1368DR,6089,8528,15124,0.128,551
2020-07-11T13:59:20,42.805,6.029,CST-1368DR,6089,8529,15125,0.128,551
2020-07-11T14:02:21,42.805,6.029,CST-1368DR,6089,8528,15123,0.128,550
2020-07-11T14:05:23,42.805,6.029,CST-1368DR,6089,8529,15125,0.128,551
2020-07-11T14:08:25,42.805,6.029,CST-1368DR,6089,8529,15125,0.128,551
2020-07-11T14:11:26,42.805,6.029,CST-1368DR,6089,8529,15125,0.128,551
2020-07-11T14:14:28,42.805,6.029,CST-1368DR,6089,8527,15121,0.129,551
2020-07-11T14:17:30,42.805,6.029,CST-1368DR,6089,8528,15123,0.128,550
2020-07-11T14:20:31,42.805,6.029,CST-1368DR,6089,8527,15122,0.129,551
2020-07-11T14:23:33,42.805,6.029,CST-1368DR,6089,8527,15122,0.129,551
2020-07-11T14:26:35,42.805,6.029,CST-1368DR,6089,8527,15122,0.129,551
2020-07-11T14:29:36,42.805,6.029,CST-1368DR,6089,8528,15123,0.128,550
2020-07-11T14:32:38,42.805,6.029,CST-1368DR,6089,8527,15122,0.129,550
2020-07-11T14:35:40,42.805,6.029,CST-1368DR,6089,8528,15124,0.128,551
2020-07-11T14:38:41,42.805,6.029,CST-1368DR,6089,8529,15125,0.128,551
2020-07-11T14:41:43,42.805,6.029,CST-1368DR,6089,8528,15123,0.128,551
2020-07-11T14:44:45,42.805,6.029,CST-1368DR,6089,8527,15122,0.129,551
2020-07-11T14:47:46,42.805,6.029,CST-1368DR,6089,8527,15122,0.129,551
2020-07-11T14:50:48,42.805,6.029,CST-1368DR,6089,8528,15123,0.128,551
2020-07-11T14:53:50,42.805,6.029,CST-1368DR,6089,8529,15125,0.128,551
2020-07-11T14:56:51,42.805,6.029,CST-1368DR,6089,8528,15124,0.128,550
2020-07-11T14:59:53,42.805,6.029,CST-1368DR,6089,8528,15124,0.128,551
2020-07-11T15:02:55,42.805,6.029,CST-1368DR,6089,8528,15123,0.128,551
2020-07-11T15:05:57,42.805,6.029,CST-1368DR,6089,8528,15124,0.128,551
2020-07-11T15:08:59,42.805,6.029,CST-1368DR,6089,8528,15123,0.128,551
2020-07-11T15:12:00,42.805,6.029,CST-1368DR,6089,8528,15123,0.128,551
2020-07-11T15:15:02,42.805,6.029,CST-1368DR,6089,8529,15125,0.128,551
2020-07-11T15:18:04,42.805,6.029,CST-1368DR,6089,8528,15123,0.128,551
2020-07-11T15:21:05,42.805,6.029,CST-1368DR,6089,8529,15125,0.128,551
2020-07-11T15:24:07,42.805,6.029,CST-1368DR,6089,8529,15125,0.128,551
2020-07-11T15:27:09,42.805,6.029,CST-1368DR,6089,8528,15123,0.128,551
2020-07-11T15:30:10,42.805,6.029,CST-1368DR,6089,8529,15125,0.128,551
2020-07-11T15:33:12,42.805,6.029,CST-1368DR,6089,8528,15123,0.128,550
2020-07-11T15:36:14,42.805,6.029,CST-1368DR,6089,8528,15123,0.128,551
2020-07-11T15:39:15,42.805,6.029,CST-1368DR,6089,8528,15123,0.128,551
2020-07-11T15:42:17,42.805,6.029,CST-1368DR,6089,8527,15122,0.129,551
2020-07-11T15:45:19,42.805,6.029,CST-1368DR,6089,8528,15123,0.128,551
2020-07-11T15:48:20,42.805,6.029,CST-1368DR,6089,8529,15125,0.128,551
2020-07-11T15:51:22,42.805,6.029,CST-1368DR,6089,8526,15119,0.129,551
2020-07-11T15:54:24,42.805,6.029,CST-1368DR,6089,8527,15122,0.129,551
2020-07-11T15:57:25,42.805,6.029,CST-1368DR,6089,8528,15123,0.128,551
2020-07-11T16:00:27,42.805,6.029,CST-1368DR,6089,8528,15123,0.128,551
2020-07-11T16:03:29,42.805,6.029,CST-1368DR,6089,8528,15124,0.128,551
2020-07-11T16:06:30,42.805,6.029,CST-1368DR,6089,8529,15125,0.128,551
2020-07-11T16:09:32,42.805,6.029,CST-1368DR,6089,8529,15125,0.128,551
2020-07-11T16:12:34,42.805,6.029,CST-1368DR,6089,8529,15125,0.128,551
2020-07-11T16:15:35,42.805,6.029,CST-1368DR,6089,8528,15124,0.128,551
2020-07-11T16:18:37,42.805,6.029,CST-1368DR,6089,8527,15122,0.129,551
2020-07-11T16:21:39,42.805,6.029,CST-1368DR,6089,8529,15125,0.128,551
2020-07-11T16:24:41,42.805,6.029,CST-1368DR,6089,8528,15124,0.128,551
2020-07-11T16:27:42,42.805,6.029,CST-1368DR,6089,8528,15124,0.128,551
2020-07-11T16:30:44,42.805,6.029,CST-1368DR,6089,8527,15122,0.129,551
2020-07-11T16:33:46,42.805,6.029,CST-1368DR,6089,8527,15121,0.129,551
2020-07-11T16:36:47,42.805,6.029,CST-1368DR,6089,8527,15121,0.129,551
2020-07-11T16:39:49,42.805,6.029,CST-1368DR,6089,8528,15123,0.128,551
2020-07-11T16:42:51,42.805,6.029,CST-1368DR,6089,8528,15124,0.128,551
2020-07-11T16:45:52,42.805,6.029,CST-1368DR,6089,8528,15123,0.128,551
2020-07-11T16:48:54,42.805,6.029,CST-1368DR,6089,8528,15123,0.128,551
2020-07-11T16:51:56,42.805,6.029,CST-1368DR,6089,8529,15125,0.128,551